GW3459 Weather Reports


time (UTC)temp
F
wind
direction
speed
knots
gust
knots
rain 1hr
in
rain 24hr
in
rain mn
in
humidity
%
barometer
mb
20260508034418 43 343 0.0 0.0 0.00 0.00 0.00 76 1013.2
20260508033914 43 343 0.0 0.0 0.00 0.00 0.00 75 1013.0
20260508033412 43 343 0.0 0.0 0.00 0.00 0.00 75 1013.3
20260508032909 43 343 0.0 0.0 0.00 0.00 0.00 74 1013.0
20260508032407 44 343 0.0 0.0 0.00 0.00 0.00 73 1013.2
20260508031903 44 343 0.0 0.0 0.00 0.00 0.00 72 1013.2
20260508031401 44 343 0.0 0.0 0.00 0.00 0.00 72 1013.3
20260508030856 44 343 0.0 0.0 0.00 0.00 0.00 71 1013.5
20260508030353 44 343 0.0 0.0 0.00 0.00 0.00 70 1013.4
20260508025850 45 343 0.0 0.0 0.00 0.00 0.00 70 1013.4
20260508025341 45 343 0.0 0.0 0.00 0.00 0.00 69 1013.3
20260508024838 45 343 0.0 0.0 0.00 0.00 0.00 68 1013.2
20260508024335 45 343 0.0 0.0 0.00 0.00 0.00 68 1013.3
20260508023832 45 343 0.0 0.0 0.00 0.00 0.00 68 1013.5
20260508023328 46 343 0.0 0.0 0.00 0.00 0.00 68 1013.2
20260508022825 46 343 0.0 0.0 0.00 0.00 0.00 68 1013.4
20260508022321 46 343 0.0 0.0 0.00 0.00 0.00 66 1013.2
20260508021818 46 343 0.0 0.0 0.00 0.00 0.00 64 1013.0
20260508021314 46 343 0.0 0.0 0.00 0.00 0.00 63 1013.3
20260508020810 46 343 0.0 0.0 0.00 0.00 0.00 62 1013.0
20260508020308 46 343 0.0 0.0 0.00 0.00 0.00 61 1013.0
20260508015805 46 343 0.0 0.0 0.00 0.00 0.00 61 1013.3
20260508015305 46 343 0.0 0.0 0.00 0.00 0.00 62 1013.0
20260508014759 46 343 0.0 0.0 0.00 0.00 0.00 61 1013.2
20260508014256 46 343 0.0 0.0 0.00 0.00 0.00 62 1013.0
20260508013751 47 343 0.0 0.0 0.00 0.00 0.00 62 1013.3
20260508013248 47 343 0.0 0.0 0.00 0.00 0.00 64 1013.0
20260508012746 47 343 0.0 0.0 0.00 0.00 0.00 63 1012.8
20260508012242 47 343 0.0 0.0 0.00 0.00 0.00 64 1012.8
20260508011741 48 343 0.0 0.0 0.00 0.00 0.00 63 1012.8
20260508011238 48 343 0.0 0.0 0.00 0.00 0.00 62 1012.9
20260508010735 48 343 0.0 0.0 0.00 0.00 0.00 61 1012.8
20260508010233 49 343 0.0 0.0 0.00 0.00 0.00 61 1012.6
20260508005729 49 343 0.0 0.0 0.00 0.00 0.00 60 1012.5
20260508005226 49 344 0.0 0.0 0.00 0.00 0.00 60 1012.6
20260508004721 50 344 0.0 0.9 0.00 0.00 0.00 59 1012.4
20260508004218 50 346 0.0 0.0 0.00 0.00 0.00 58 1012.4
20260508003715 50 338 0.9 0.9 0.00 0.00 0.00 59 1012.6
20260508003212 51 338 0.9 0.9 0.00 0.00 0.00 58 1012.3
20260508002709 51 345 0.9 0.9 0.00 0.00 0.00 58 1012.3
20260508002207 51 355 1.7 1.7 0.00 0.00 0.00 59 1012.2
20260508001702 51 347 0.9 0.9 0.00 0.00 0.00 58 1012.0
20260508001158 51 332 0.9 0.9 0.00 0.00 0.00 58 1012.3
20260508000654 52 342 0.9 0.9 0.00 0.00 0.00 57 1012.0
20260508000151 52 340 0.9 0.9 0.00 0.00 0.00 56 1011.9
20260507235648 52 338 1.7 1.7 0.00 0.00 0.00 56 1011.9
20260507235145 52 314 1.7 1.7 0.00 0.00 0.00 55 1011.8
20260507234642 53 328 0.9 1.7 0.00 0.00 0.00 55 1011.9
20260507234138 53 8 1.7 1.7 0.00 0.00 0.00 54 1012.0
20260507233635 54 328 1.7 1.7 0.00 0.00 0.00 52 1011.8
20260507233134 54 326 3.5 4.3 0.00 0.00 0.00 52 1011.8
20260507232629 55 295 2.6 2.6 0.00 0.00 0.00 51 1011.7
20260507232127 55 274 1.7 1.7 0.00 0.00 0.00 52 1011.7
20260507231623 55 330 0.9 2.6 0.00 0.00 0.00 51 1011.7
20260507231121 55 336 2.6 2.6 0.00 0.00 0.00 50 1011.7
20260507230617 56 339 1.7 2.6 0.00 0.00 0.00 45 1011.7
20260507230114 56 286 5.2 6.1 0.00 0.00 0.00 43 1011.6
20260507225609 56 277 2.6 4.3 0.00 0.00 0.00 44 1011.7
20260507225106 56 147 1.7 1.7 0.00 0.00 0.00 44 1011.4
20260507224601 57 358 6.1 7.8 0.00 0.00 0.00 43 1011.5
20260507224058 56 336 3.5 6.1 0.00 0.00 0.00 45 1011.6
20260507223554 56 313 1.7 2.6 0.00 0.00 0.00 45 1011.6
20260507223051 56 334 1.7 2.6 0.00 0.00 0.00 44 1011.5
20260507222548 56 279 4.3 5.2 0.00 0.00 0.00 43 1011.4
20260507222045 56 340 2.6 2.6 0.00 0.00 0.00 43 1011.3
20260507221541 57 287 3.5 5.2 0.00 0.00 0.00 41 1011.1
20260507221038 57 37 1.7 2.6 0.00 0.00 0.00 41 1011.1
20260507220535 58 339 3.5 5.2 0.00 0.00 0.00 40 1011.1
20260507220033 57 313 2.6 2.6 0.00 0.00 0.00 42 1011.0
20260507215529 57 327 2.6 6.1 0.00 0.00 0.00 42 1011.0
20260507215027 57 322 3.5 5.2 0.00 0.00 0.00 41 1010.7
20260507214524 57 318 1.7 1.7 0.00 0.00 0.00 42 1010.9
20260507214020 57 185 2.6 2.6 0.00 0.00 0.00 41 1010.7
20260507213516 57 280 1.7 1.7 0.00 0.00 0.00 41 1010.8
20260507213013 59 256 4.3 6.1 0.00 0.00 0.00 37 1010.5
20260507212508 59 339 4.3 5.2 0.00 0.00 0.00 39 1010.4
20260507212006 58 4 5.2 8.7 0.00 0.00 0.00 39 1010.5
20260507211503 58 349 1.7 2.6 0.00 0.00 0.00 41 1010.5
20260507210959 60 274 2.6 4.3 0.00 0.00 0.00 38 1010.7
20260507210456 60 311 1.7 1.7 0.00 0.00 0.00 40 1010.3
20260507205952 59 298 2.6 2.6 0.00 0.00 0.00 43 1010.4
20260507205444 57 2 1.7 1.7 0.00 0.00 0.00 45 1010.1
20260507204940 57 292 1.7 1.7 0.00 0.00 0.00 44 1010.4
20260507204436 58 275 3.5 4.3 0.00 0.00 0.00 43 1010.3
20260507203934 58 261 3.5 4.3 0.00 0.00 0.00 43 1010.1
20260507203432 57 315 1.7 2.6 0.00 0.00 0.00 44 1010.1
20260507202928 57 343 0.9 0.9 0.00 0.00 0.00 42 1010.5
20260507202425 59 250 3.5 4.3 0.00 0.00 0.00 42 1010.4
20260507201920 59 315 2.6 2.6 0.00 0.00 0.00 42 1010.6
20260507201415 58 270 1.7 1.7 0.00 0.00 0.00 41 1010.4
20260507200913 59 298 3.5 4.3 0.00 0.00 0.00 40 1010.4
20260507200408 58 329 2.6 4.3 0.00 0.00 0.00 41 1010.4
20260507195904 57 272 0.9 1.7 0.00 0.00 0.00 44 1010.6
20260507195402 57 342 3.5 4.3 0.00 0.00 0.00 42 1010.8
20260507194859 59 340 1.7 4.3 0.00 0.00 0.00 40 1010.8
20260507194355 57 144 3.5 5.2 0.00 0.00 0.00 41 1010.9
20260507193851 59 278 3.5 5.2 0.00 0.00 0.00 41 1010.6
20260507193349 58 298 1.7 1.7 0.00 0.00 0.00 39 1010.8
20260507192845 58 343 0.9 1.7 0.00 0.00 0.00 41 1010.9
20260507192341 58 294 4.3 6.1 0.00 0.00 0.00 40 1010.8
20260507191838 59 342 2.6 2.6 0.00 0.00 0.00 41 1010.8
20260507191334 58 283 4.3 5.2 0.00 0.00 0.00 40 1010.8
20260507190831 59 250 2.6 2.6 0.00 0.00 0.00 40 1011.2
20260507190330 58 198 0.9 1.7 0.00 0.00 0.00 39 1011.0
20260507185828 59 244 4.3 6.1 0.00 0.00 0.00 38 1010.7
20260507185325 57 324 0.9 0.9 0.00 0.00 0.00 42 1010.6
20260507184822 57 300 2.6 2.6 0.00 0.00 0.00 40 1010.9
20260507184320 58 336 1.7 1.7 0.00 0.00 0.00 42 1010.8
20260507183817 59 302 2.6 4.3 0.00 0.00 0.00 42 1011.1
20260507183314 58 295 2.6 4.3 0.00 0.00 0.00 44 1010.9
20260507182811 58 312 2.6 4.3 0.00 0.00 0.00 39 1010.9
20260507182307 59 264 2.6 4.3 0.00 0.00 0.00 41 1010.9
20260507181803 59 255 2.6 2.6 0.00 0.00 0.00 41 1011.1
20260507181259 59 299 1.7 1.7 0.00 0.00 0.00 41 1010.9
20260507180756 59 203 3.5 4.3 0.00 0.00 0.00 38 1011.0
20260507180253 58 343 1.7 2.6 0.00 0.00 0.00 42 1011.1
20260507175748 58 278 1.7 1.7 0.00 0.00 0.00 41 1011.0
20260507175246 57 265 1.7 1.7 0.00 0.00 0.00 42 1011.2
20260507174743 57 312 4.3 6.1 0.00 0.00 0.00 41 1011.1
20260507174241 58 264 1.7 2.6 0.00 0.00 0.00 41 1011.1
20260507173738 59 317 2.6 4.3 0.00 0.00 0.00 42 1011.3
20260507173235 58 216 0.9 0.9 0.00 0.00 0.00 42 1011.2
20260507172731 59 252 2.6 2.6 0.00 0.00 0.00 43 1011.2
20260507172229 57 330 0.9 0.9 0.00 0.00 0.00 43 1011.4
20260507171728 57 311 2.6 2.6 0.00 0.00 0.00 44 1011.5
20260507171226 57 353 0.9 1.7 0.00 0.00 0.00 42 1011.5
20260507170723 57 299 1.7 1.7 0.00 0.00 0.00 43 1011.5
20260507170220 57 298 2.6 4.3 0.00 0.00 0.00 43 1011.6
20260507165715 57 320 2.6 4.3 0.00 0.00 0.00 47 1011.7
20260507165212 57 261 2.6 2.6 0.00 0.00 0.00 43 1011.5
20260507164708 56 320 1.7 1.7 0.00 0.00 0.00 44 1011.7
20260507164206 56 111 3.5 5.2 0.00 0.00 0.00 46 1011.4
20260507163702 57 46 0.9 0.9 0.00 0.00 0.00 46 1011.6
20260507163200 56 344 2.6 2.6 0.00 0.00 0.00 48 1011.7
20260507162655 56 291 2.6 2.6 0.00 0.00 0.00 48 1011.8
20260507162152 55 310 1.7 1.7 0.00 0.00 0.00 48 1011.7
20260507161648 56 270 1.7 1.7 0.00 0.00 0.00 48 1011.6
20260507161145 57 261 1.7 1.7 0.00 0.00 0.00 47 1011.6
20260507160641 56 330 3.5 4.3 0.00 0.00 0.00 47 1011.6
20260507160138 56 220 2.6 4.3 0.00 0.00 0.00 47 1011.8
20260507155634 56 276 2.6 2.6 0.00 0.00 0.00 49 1011.9
20260507155130 56 319 1.7 1.7 0.00 0.00 0.00 49 1011.8
20260507154627 55 148 1.7 2.6 0.00 0.00 0.00 45 1012.0
20260507154124 55 162 2.6 4.3 0.00 0.00 0.00 46 1011.9
20260507153615 54 105 1.7 2.6 0.00 0.00 0.00 48 1012.0
20260507153111 54 308 2.6 2.6 0.00 0.00 0.00 49 1012.0
20260507152607 54 338 0.9 0.9 0.00 0.00 0.00 47 1012.1
20260507152058 55 266 2.6 2.6 0.00 0.00 0.00 50 1012.0
20260507151554 54 256 1.7 1.7 0.00 0.00 0.00 49 1012.2
20260507151052 55 206 2.6 2.6 0.00 0.00 0.00 49 1012.2
20260507150549 55 121 1.7 2.6 0.00 0.00 0.00 51 1012.1
20260507150045 54 333 2.6 2.6 0.00 0.00 0.00 51 1012.0
20260507145540 53 267 1.7 2.6 0.00 0.00 0.00 52 1012.3
20260507145038 53 341 0.9 1.7 0.00 0.00 0.00 55 1012.3
20260507144534 54 154 4.3 5.2 0.00 0.00 0.00 54 1012.3
20260507144032 53 322 0.9 1.7 0.00 0.00 0.00 56 1012.5
20260507143529 53 142 3.5 5.2 0.00 0.00 0.00 55 1012.2
20260507143027 53 358 0.9 0.9 0.00 0.00 0.00 58 1012.4
20260507142522 53 335 0.0 0.0 0.00 0.00 0.00 60 1012.2
20260507142019 53 272 0.9 0.9 0.00 0.00 0.00 58 1012.5
20260507141515 53 182 2.6 2.6 0.00 0.00 0.00 56 1012.8
20260507141012 53 68 1.7 2.6 0.00 0.00 0.00 58 1012.6
20260507140509 53 314 2.6 4.3 0.00 0.00 0.00 61 1012.7
20260507140007 52 352 0.9 1.7 0.00 0.00 0.00 60 1012.6
20260507135503 52 276 2.6 4.3 0.00 0.00 0.00 62 1012.9
20260507135000 51 323 2.6 2.6 0.00 0.00 0.00 63 1012.8
20260507134456 51 290 1.7 1.7 0.00 0.00 0.00 63 1012.9
20260507133952 51 257 2.6 4.3 0.00 0.00 0.00 64 1013.0
20260507133448 51 227 2.6 4.3 0.00 0.00 0.00 65 1012.9
20260507132947 50 323 1.7 1.7 0.00 0.00 0.00 66 1012.9
20260507132443 50 271 2.6 2.6 0.00 0.00 0.00 65 1013.0
20260507131939 50 298 0.9 0.9 0.00 0.00 0.00 66 1013.2
20260507131437 50 306 0.9 1.7 0.00 0.00 0.00 67 1013.0
20260507130934 50 298 1.7 2.6 0.00 0.00 0.00 67 1013.0
20260507130431 49 190 4.3 5.2 0.00 0.00 0.00 66 1012.8
20260507125929 49 214 2.6 2.6 0.00 0.00 0.00 67 1012.9
20260507125427 49 242 1.7 2.6 0.00 0.00 0.00 68 1012.9
20260507124924 48 209 2.6 4.3 0.00 0.00 0.00 68 1013.2
20260507124420 48 357 0.9 0.9 0.00 0.00 0.00 70 1013.0
20260507123919 48 87 1.7 1.7 0.00 0.00 0.00 69 1013.0
20260507123415 47 328 0.9 0.9 0.00 0.00 0.00 72 1013.0
20260507122912 47 141 2.6 2.6 0.00 0.00 0.00 72 1012.9
20260507122407 46 350 0.9 0.9 0.00 0.00 0.00 74 1013.0
20260507121904 45 303 0.9 1.7 0.00 0.00 0.00 78 1013.0
20260507121359 44 336 0.9 0.9 0.00 0.00 0.00 83 1013.0
20260507120856 43 28 0.0 0.0 0.00 0.00 0.00 86 1013.2
20260507120352 42 29 0.0 0.9 0.00 0.00 0.00 88 1012.9
20260507115849 41 15 0.0 0.0 0.00 0.00 0.00 90 1012.9
20260507115344 41 351 0.9 0.9 0.00 0.00 0.00 92 1013.0
20260507114840 40 355 0.0 0.9 0.00 0.00 0.00 93 1013.2
20260507114338 40 2 0.0 0.0 0.00 0.00 0.00 93 1013.2
20260507113835 40 2 0.0 0.0 0.00 0.00 0.00 93 1013.2
20260507113332 40 3 0.0 0.9 0.00 0.00 0.00 94 1013.2
20260507112829 40 26 0.0 0.0 0.00 0.00 0.00 94 1012.9
20260507112326 39 13 0.0 0.0 0.00 0.00 0.00 95 1012.9
20260507111824 39 13 0.0 0.0 0.00 0.00 0.00 95 1013.0
20260507111320 39 13 0.0 0.0 0.00 0.00 0.00 95 1012.9
20260507110817 38 12 0.0 0.9 0.00 0.00 0.00 96 1012.9
20260507110313 38 356 0.0 0.0 0.00 0.00 0.00 96 1012.9
20260507105810 37 349 0.0 0.0 0.00 0.00 0.00 96 1012.8
20260507105307 37 351 0.0 0.0 0.00 0.00 0.00 96 1013.0
20260507104804 37 358 0.0 0.9 0.00 0.00 0.00 96 1012.9
20260507104300 36 354 0.0 0.0 0.00 0.00 0.00 96 1012.8
20260507103756 36 354 0.0 0.0 0.00 0.00 0.00 95 1012.7
20260507103252 37 355 0.0 0.0 0.00 0.00 0.00 95 1012.9
20260507102748 36 356 0.0 0.0 0.00 0.00 0.00 95 1012.8
20260507102240 36 0 0.0 0.0 0.00 0.00 0.00 95 1012.9
20260507101736 36 0 0.0 0.0 0.00 0.00 0.00 95 1012.7
20260507101231 36 4 0.0 0.0 0.00 0.00 0.00 95 1012.7
20260507100728 36 3 0.0 0.0 0.00 0.00 0.00 95 1012.7
20260507100227 36 346 0.0 0.0 0.00 0.00 0.00 95 1012.6
20260507095724 36 357 0.0 0.0 0.00 0.00 0.00 95 1012.7
20260507095220 37 7 0.0 0.0 0.00 0.00 0.00 95 1012.5
20260507094717 37 7 0.0 0.0 0.00 0.00 0.00 95 1012.5
20260507094209 37 7 0.0 0.0 0.00 0.00 0.00 94 1012.8
20260507093705 37 7 0.0 0.0 0.00 0.00 0.00 94 1012.5
20260507093204 37 7 0.0 0.0 0.00 0.00 0.00 94 1012.5
20260507092700 37 7 0.0 0.0 0.00 0.00 0.00 94 1012.6
20260507092151 37 7 0.0 0.0 0.00 0.00 0.00 94 1012.7
20260507091648 37 7 0.0 0.0 0.00 0.00 0.00 94 1012.8
20260507091144 37 7 0.0 0.0 0.00 0.00 0.00 94 1012.6
20260507090640 37 7 0.0 0.0 0.00 0.00 0.00 94 1012.9
20260507090137 37 8 0.0 0.0 0.00 0.00 0.00 94 1012.6
20260507085634 37 7 0.0 0.0 0.00 0.00 0.00 94 1012.7
20260507085131 37 7 0.0 0.0 0.00 0.00 0.00 94 1012.7
20260507084628 37 7 0.0 0.0 0.00 0.00 0.00 93 1012.9
20260507084124 37 7 0.0 0.0 0.00 0.00 0.00 93 1012.8
20260507083621 37 7 0.0 0.0 0.00 0.00 0.00 93 1012.7
20260507083118 38 7 0.0 0.0 0.00 0.00 0.00 93 1012.8
20260507082613 38 6 0.0 0.0 0.00 0.00 0.00 93 1012.9
20260507082110 38 8 0.0 0.0 0.00 0.00 0.00 93 1012.8
20260507081606 38 6 0.0 0.0 0.00 0.00 0.00 92 1012.8
20260507081104 38 6 0.0 0.0 0.00 0.00 0.00 92 1012.8
20260507080600 38 6 0.0 0.0 0.00 0.00 0.00 92 1013.0
20260507080056 38 6 0.0 0.0 0.00 0.00 0.00 92 1012.9
20260507075551 39 6 0.0 0.0 0.00 0.00 0.00 92 1012.8
20260507075048 39 11 0.0 0.0 0.00 0.00 0.00 91 1012.8
20260507074545 39 11 0.0 0.0 0.00 0.00 0.00 91 1012.9
20260507074043 39 11 0.0 0.0 0.00 0.00 0.00 91 1013.2
20260507073539 39 11 0.0 0.0 0.00 0.00 0.00 91 1013.0
20260507073036 39 11 0.0 0.0 0.00 0.00 0.00 90 1013.2
20260507072533 39 11 0.0 0.0 0.00 0.00 0.00 90 1013.3
20260507072030 39 11 0.0 0.0 0.00 0.00 0.00 90 1013.0
20260507071528 40 11 0.0 0.0 0.00 0.00 0.00 89 1012.8
20260507071024 40 11 0.0 0.0 0.00 0.00 0.00 89 1012.8
20260507070521 40 12 0.0 0.0 0.00 0.00 0.00 89 1012.9
20260507070018 40 6 0.0 0.0 0.00 0.00 0.00 88 1012.9
20260507065514 40 5 0.0 0.0 0.00 0.00 0.00 88 1013.0
20260507065012 40 13 0.0 0.0 0.00 0.00 0.00 87 1013.2
20260507064510 40 13 0.0 0.0 0.00 0.00 0.00 87 1013.0
20260507064008 41 13 0.0 0.0 0.00 0.00 0.00 86 1012.9
20260507063505 41 13 0.0 0.0 0.00 0.00 0.00 86 1013.0
20260507063002 41 14 0.0 0.0 0.00 0.00 0.00 85 1013.3
20260507062458 41 14 0.0 0.0 0.00 0.00 0.00 85 1013.5
20260507061956 41 24 0.9 0.9 0.00 0.00 0.00 85 1013.0
20260507061454 41 14 0.0 0.0 0.00 0.00 0.00 84 1013.5
20260507060952 41 14 0.0 0.0 0.00 0.00 0.00 83 1013.5
20260507060449 42 14 0.0 0.0 0.00 0.00 0.00 82 1013.3
20260507055945 42 14 0.0 0.0 0.00 0.00 0.00 81 1013.7
20260507055440 42 14 0.0 0.0 0.00 0.00 0.00 80 1013.5
20260507054937 42 14 0.0 0.0 0.00 0.00 0.00 79 1013.7
20260507054433 42 14 0.0 0.0 0.00 0.00 0.00 79 1013.4
20260507053931 43 14 0.0 0.0 0.00 0.00 0.00 78 1013.7
20260507053428 43 14 0.0 0.0 0.00 0.00 0.00 76 1013.6
20260507052927 43 15 0.0 0.0 0.00 0.00 0.00 75 1013.6
20260507052424 44 15 0.0 0.0 0.00 0.00 0.00 74 1013.6
20260507051921 44 15 0.0 0.0 0.00 0.00 0.00 73 1013.6
20260507051418 45 15 0.0 0.0 0.00 0.00 0.00 72 1013.8
20260507050915 45 15 0.0 0.0 0.00 0.00 0.00 71 1013.7
20260507050411 45 15 0.0 0.0 0.00 0.00 0.00 70 1013.8
20260507045908 45 15 0.0 0.0 0.00 0.00 0.00 69 1013.8
20260507045404 45 15 0.0 0.0 0.00 0.00 0.00 69 1013.8
20260507044857 45 15 0.0 0.0 0.00 0.00 0.00 69 1013.9
20260507044353 46 15 0.0 0.0 0.00 0.00 0.00 70 1014.0
20260507043849 46 11 0.9 0.9 0.00 0.00 0.00 69 1014.0
20260507043346 46 10 0.0 0.0 0.00 0.00 0.00 69 1013.9
20260507042842 46 351 0.9 0.9 0.00 0.00 0.00 69 1014.0
20260507042338 46 355 0.9 1.7 0.00 0.00 0.00 68 1014.0
20260507041835 46 353 0.9 0.9 0.00 0.00 0.00 68 1014.0
20260507041332 46 2 0.9 1.7 0.00 0.00 0.00 68 1014.2
20260507040829 46 356 0.9 0.9 0.00 0.00 0.00 67 1014.1
20260507040325 47 14 0.0 0.9 0.00 0.00 0.00 67 1014.0
20260507035821 47 6 0.0 0.9 0.00 0.63 0.63 67 1014.1
20260507035316 47 359 0.0 0.0 0.00 0.63 0.63 68 1014.2